Location: Courcelles
(50.4176°N, 3.0170°E)
Time: 20:24:07
(UTC+00:00)

Daily predictions for brighter satellites

Satellite Brightness Start Highest point End
(mag) Time Altitude Azimuth Time Altitude Azimuth Time Altitude Azimuth
USA 267 3.3 16:49:46 10° ESE 16:56:17 74° NNE 17:02:49 10° WNW
SL-16 R/B 2.4 16:57:10 10° S 17:02:39 55° ESE 17:08:12 10° NE
deb Chang Zheng 4 3.9 17:00:01 10° SE 17:03:58 40° ENE 17:07:57 10° N
NOAA 6 4.1 17:00:25 10° SSE 17:05:37 90° WSW 17:10:50 10° NNW
NOSS 2-3 (D) 3.8 17:02:47 10° SSW 17:06:43 51° SE 17:11:21 10° NE
NOSS 3-1 (C) 3.3 17:03:53 10° SSW 17:09:08 64° SE 17:15:22 10° NE
Cosmos 332 Rocket 4.2 17:04:57 10° S 17:09:33 43° ESE 17:14:10 10° NE
Cosmos 2322 Rocket 2.4 17:06:36 10° S 17:11:58 49° ESE 17:17:23 10° NE
Cosmos 2219 Rocket 3.8 17:10:59 10° SE 17:13:44 14° E 17:16:31 10° ENE
ARGOS 3.7 17:09:23 10° SE 17:14:17 36° ENE 17:19:14 10° N
Cosmos 1953 3.0 17:12:13 10° SSW 17:16:14 60° WNW 17:20:16 10° N
Cosmos 1140 Rocket 4.2 17:12:14 10° N 17:16:56 33° NE 17:21:38 10° ESE
H-2A R/B 2.2 17:13:20 10° SSE 17:18:39 58° ENE 17:24:01 10° N
SMAP 3.4 17:14:03 10° S 17:18:42 72° WSW 17:23:22 10° NNW
Cosmos 2360 Rocket 2.8 17:13:48 10° S 17:18:53 35° ESE 17:24:00 10° NE
NOSS 2-3 (C) 3.6 17:15:04 10° SSW 17:19:06 68° SE 17:23:57 10° NE
Cosmos 1821 Rocket 4.3 17:13:00 10° SSW 17:19:22 76° W 17:25:43 10° N
Cosmos 1408 3.5 17:17:11 10° NNE 17:20:17 27° ENE 17:23:21 10° SE
Cosmos 1602 Rocket 3.8 17:16:25 10° N 17:20:37 45° ENE 17:24:46 10° SSE
H-2A R/B 3.5 17:18:14 10° ESE 17:21:32 23° ENE 17:24:46 10° N
Cosmos 1934 Rocket 3.9 17:16:58 10° S 17:22:58 68° E 17:28:59 10° NNE
Cosmos 1844 3.8 17:17:32 10° NNW 17:23:18 61° NE 17:28:58 10° SE
Cosmos 1932 4.4 17:20:56 10° NW 17:27:12 84° NE 17:33:29 10° SE
Cosmos 407 Rocket 4.0 17:22:18 10° NNW 17:27:21 41° ENE 17:32:23 10° SE
SME Rocket 4.1 17:23:05 10° NNE 17:27:32 68° WNW 17:33:59 10° SSW
NOSS 8 (E) 4.4 17:25:13 10° SW 17:28:27 66° NW 17:31:23 10° NE
Cosmos 1943 Rocket 4.2 17:28:12 10° N 17:29:43 11° NNE 17:31:15 10° NNE
Iridium 4 Rocket 3.4 17:25:45 10° N 17:30:34 74° E 17:35:50 10° S
Okean O Rocket 1.7 17:26:53 10° SE 17:31:06 51° ENE 17:35:22 10° N
COSMO-SKYMED 1 3.1 17:27:21 10° NNE 17:31:24 37° E 17:35:26 10° SSE
CZ-2C R/B 3.2 17:26:39 10° NNE 17:31:50 38° E 17:36:52 10° SSE
Cosmos 371 Rocket 3.6 17:29:21 10° SSW 17:34:13 74° WNW 17:39:09 10° NNE
Cosmos 614 Rocket 3.9 17:29:49 10° NNW 17:34:56 88° ENE 17:40:04 10° SSE
In-Cosmos 22 Rocket 4.1 17:30:41 10° N 17:35:56 58° ENE 17:41:11 10° SSE
Cosmos 2228 4.0 17:33:19 10° SE 17:36:59 26° E 17:40:39 10° NNE
Cosmos 220 Rocket 4.1 17:34:50 10° S 17:39:10 58° ESE 17:43:29 10° NNE
Tiangong 4.0 17:38:17 10° SW 17:39:16 11° SSW 17:40:13 10° S
Cosmos 2333 Rocket 3.1 17:35:23 10° SSE 17:40:03 27° ESE 17:44:43 10° NE
CZ-4C R/B 3.8 17:37:25 10° NE 17:40:14 25° E 17:42:58 10° SSE
SJ-11-01 4.4 17:35:58 10° SSE 17:40:33 55° ENE 17:45:11 10° N
Meteor 2-10 Rocket 3.7 17:35:39 10° S 17:40:56 54° E 17:46:02 10° NNE
CZ-4B R/B 3.2 17:35:36 10° SSE 17:41:16 82° ENE 17:46:57 10° NNW
Cosmos 1825 Rocket 4.2 17:37:53 10° N 17:41:50 33° ENE 17:45:45 10° SE
Cosmos 2251 Rocket 3.6 17:37:52 10° NNW 17:43:09 85° WSW 17:48:23 10° SSE
Cosmos 1980 Rocket 3.8 17:38:20 10° WSW 17:43:22 32° NW 17:48:27 10° NNE
Cosmos 1892 2.6 17:41:52 10° N 17:45:35 57° ENE 17:49:17 10° SSE
Okean 1-7 Rocket 4.5 17:41:15 10° NNW 17:45:35 53° W 17:49:56 10° S
Geosat FO 4.5 17:42:38 10° NNE 17:45:58 79° WNW 17:49:17 10° SW
Cosmos 44 3.5 17:41:32 10° SSW 17:46:55 68° SE 17:52:00 11° NE
Lacrosse 4 Rocket 3.4 17:45:32 10° NW 17:49:25 33° WSW 17:53:22 10° S
Cosmos 1758 Rocket 3.5 17:46:33 10° N 17:50:51 60° ENE 17:55:08 10° SSE
NOSS 5 (C) 4.1 17:50:32 10° NW 17:53:34 87° NE 17:56:21 15° SE
Cosmos 1626 Rocket 4.1 17:49:28 10° NNW 17:53:45 62° W 17:58:00 10° S
FALCON 9 DEB 3.4 17:51:18 10° SW 17:54:04 38° SSE 17:54:55 30° ESE
Landsat 5 3.7 17:50:13 10° NNE 17:54:38 55° E 17:59:04 10° S
Helios 1B 4.5 17:51:50 10° NNE 17:56:11 74° ESE 18:00:30 10° S
CZ-4C R/B 3.6 17:54:16 10° SE 17:56:17 15° ESE 17:56:17 15° ESE
Cosmos 1953 Rocket 4.2 17:53:40 10° N 17:57:44 33° ENE 18:00:34 17° SE
Cosmos 2322 4.3 17:53:43 10° SSE 17:58:46 33° ESE 18:02:40 16° NE
Okean-O 3.4 18:00:16 24° E 18:01:48 30° ENE 18:05:40 10° N
Cosmos 1844 Rocket 3.1 17:56:30 10° NNW 18:02:02 66° WSW 18:07:32 10° SSE
USA 215 3.2 17:58:11 16° ENE 18:03:41 81° SSE 18:10:15 10° SW
CZ-4 R/B 1.5 18:02:35 10° SE 18:06:32 51° ENE 18:10:36 10° N
NOSS 2-3 (E) 4.2 18:05:22 10° WSW 18:09:28 55° NW 18:13:43 14° NE
Cosmos 2369 Rocket 4.3 18:08:51 10° N 18:10:02 11° NNE 18:11:14 10° NNE
Cosmos 1459 Rocket 4.3 18:07:03 10° SSE 18:12:41 39° E 18:18:17 10° NNE
SL-8 R/B 3.9 18:08:36 10° W 18:13:21 65° S 18:15:44 29° ESE
USA 229 DEB 3.6 18:08:49 10° SW 18:15:16 90° NW 18:21:27 14° NE
USA 229 3.6 18:08:55 10° SW 18:15:22 90° SE 18:21:32 14° NE
Cosmos 1190 Rocket 3.9 18:10:21 10° NNW 18:15:33 67° ENE 18:20:02 14° SE
Meteor 1-4 Rocket 3.4 18:12:48 10° SSW 18:16:09 49° WNW 18:19:31 10° N
H-2A R/B 3.9 18:20:27 16° SSE 18:20:27 16° SSE 18:21:30 10° SSE
Cosmos 1455 2.1 18:14:50 10° S 18:18:33 56° E 18:22:16 10° NNE
SKYMED 2 3.7 18:15:14 10° NNE 18:19:35 77° WNW 18:23:56 10° SSW
FALCON 9 DEB 2.7 18:16:41 10° WSW 18:19:34 64° SSE 18:19:34 64° SSE
Feng Yun 1-1 Rocket 4.3 18:13:58 10° SSE 18:19:37 87° ENE 18:25:29 10° NNW
Cosmos 1825 2.0 18:16:00 10° N 18:19:46 71° ENE 18:23:11 12° SSE
Cosmos 2056 Rocket 4.0 18:15:27 10° SSE 18:20:02 35° ESE 18:20:43 33° E
Cosmos 292 Rocket 4.3 18:16:42 10° S 18:21:08 37° ESE 18:21:44 36° E
HJ-1C 3.3 18:21:34 57° ENE 18:21:34 57° ENE 18:24:40 10° N
YAOGAN 1 2.4 18:17:44 10° SSE 18:22:03 75° ENE 18:26:24 10° N
ATLAS 5 CENTAUR R/B 3.5 18:18:46 10° WNW 18:22:08 22° NNW 18:25:18 12° NNE
ATLAS 3B R/B 4.1 18:17:29 10° WNW 18:23:16 28° N 18:28:13 14° NE
NOSS 2-2 (C) 4.0 18:24:05 10° SSW 18:26:17 30° SSE 18:26:17 30° SSE
Cosmos 2100 Rocket 4.1 18:21:08 10° SSE 18:27:16 55° E 18:33:28 10° NNE
Spot 2 4.2 18:23:07 10° SSE 18:27:23 79° WSW 18:31:59 10° NNW
Cosmos 1606 Rocket 3.4 18:27:41 10° S 18:32:07 69° E 18:36:34 10° NNE
Cosmos 2173 Rocket 4.0 18:26:42 10° SSE 18:32:46 56° E 18:38:55 10° NNE
FALCON 9 DEB 3.4 18:31:33 10° SW 18:34:34 54° S 18:34:34 54° S
CENTAUR R/B 3.5 18:29:17 10° NW 18:36:38 46° NNE 18:40:07 32° E
Cosmos 2278 Rocket 2.4 18:31:52 10° NNW 18:37:23 48° NE 18:38:33 42° E
NOSS 3-1 (A) 3.6 18:32:22 10° SW 18:37:50 67° NW 18:42:39 18° NE
FALCON 9 DEB 3.9 18:36:11 10° WSW 18:38:14 39° SW 18:38:14 39° SW
USA 267 4.0 18:33:17 10° SSE 18:39:33 49° SW 18:45:53 10° WNW
Cosmos 1802 Rocket 4.0 18:37:05 10° SSE 18:42:59 52° E 18:48:58 10° NNE
COSMOS 2428 2.8 18:39:02 10° S 18:44:30 52° ESE 18:45:33 46° ENE
SL-16 R/B 3.7 18:41:55 10° WSW 18:47:03 34° NW 18:52:13 10° NNE
SL-08 RB Rocket 4.4 18:42:44 10° S 18:47:15 56° W 18:51:50 10° NNW
MetOp-A 4.0 18:44:20 28° SSE 18:47:15 73° ENE 18:52:37 10° NNW
SL-24 R/B - RUBIN 2 4.2 18:41:27 10° SSW 18:47:16 54° SE 18:47:58 51° E
Cosmos 2333 4.1 18:42:04 10° SSW 18:47:44 89° SE 18:52:01 19° NNE
IRS-1C Rocket 4.0 18:43:15 13° SSE 18:47:59 89° ENE 18:53:18 10° NNW
Cosmos 1371 Rocket 3.8 18:46:52 10° SSW 18:52:05 70° ESE 18:53:37 45° NE
NOSS 3-2 (A) 4.1 18:46:14 10° NW 18:53:15 56° NE 18:55:43 41° E
ARGOS 4.4 18:49:25 10° SSW 18:54:30 41° W 18:59:39 10° NNW
Cosmos 2322 Rocket 3.6 18:51:05 10° WSW 18:56:13 36° NW 19:01:25 10° NNE
Cosmos 2219 Rocket 2.0 18:51:09 10° SSW 18:56:44 78° ESE 18:58:59 38° NE
H-2A R/B 3.6 18:52:50 10° S 18:56:48 41° W 19:00:40 10° NNW
H-2A R/B 4.4 18:53:58 10° SSW 18:58:25 26° W 19:02:56 10° NW
Cosmos 1624 Rocket 3.9 18:54:54 10° SSW 19:00:11 74° ESE 19:01:15 57° NE
NOSS 3-1 (C) 4.5 18:55:01 10° W 19:00:22 40° NNW 19:04:36 19° NNE
Cosmos 1726 Rocket 3.6 18:56:02 10° SSW 19:00:30 81° W 19:05:00 10° N
Lacrosse 5 3.7 18:56:56 10° S 18:58:38 19° S 18:58:38 19° S
Cosmos 2360 Rocket 3.1 18:57:19 10° SW 19:02:46 47° NW 19:08:11 10° NNE
USA 238 DEB 4.1 18:58:56 10° NW 19:05:49 49° NNE 19:07:09 44° ENE
USA 238 4.2 18:59:01 10° NW 19:05:54 49° NNE 19:07:14 44° ENE
Okean O Rocket 4.2 19:04:29 10° SW 19:07:45 20° W 19:11:02 10° NW
Tsikada Rocket 3.9 19:03:33 10° N 19:09:43 63° ENE 19:09:53 62° E
Cosmos 2058 3.3 19:07:02 10° NNW 19:10:53 62° WNW 19:10:53 62° WNW
CZ-2C R/B 4.0 19:06:58 10° N 19:12:09 40° WNW 19:17:14 10° SW
Cosmos 2016 Rocket 3.8 19:08:47 10° S 19:14:56 75° E 19:21:03 10° NNE
Cosmos 1943 Rocket 3.5 19:10:40 10° NNW 19:14:16 26° NNE 19:14:16 26° NNE
Meteor 2-1 Rocket 4.0 19:11:27 10° S 19:17:03 86° ESE 19:22:37 10° NNE
DMSP B5D2-2 4.3 19:14:45 10° N 19:19:59 69° WNW 19:25:10 10° SSW
Cosmos 676 Rocket 4.4 19:17:47 10° NNW 19:22:57 60° WSW 19:23:55 51° SSW
Cosmos 1725 Rocket 3.9 19:16:54 10° S 19:23:54 66° NE 19:29:17 10° NNE
Cosmos 2333 Rocket 2.6 19:18:19 10° SW 19:23:57 61° NW 19:26:47 30° NNE
CSL-04 Debris 4.5 19:22:51 39° SSW 19:24:46 64° WSW 19:30:11 10° NNW
CSL-04 Rocket 4.1 19:29:42 45° SSW 19:31:13 63° WSW 19:36:46 10° NNW
Okean-O 4.0 19:37:51 36° WSW 19:38:11 36° W 19:42:19 10° NNW
CZ-4 R/B 4.1 19:38:57 10° SW 19:41:50 18° W 19:44:46 10° NW
Cosmos 2322 4.4 19:37:12 10° SW 19:42:46 51° NW 19:44:39 36° N
CZ-4C R/B 3.6 19:39:36 10° SW 19:41:33 25° SW 19:41:33 25° SW
USA 215 3.6 19:45:33 52° NNE 19:46:34 57° NNW 19:52:56 10° W
Cosmos 2061 Rocket 4.3 19:48:08 10° SSW 19:54:27 67° WNW 20:00:54 10° N
Cosmos 2369 Rocket 4.1 19:51:22 10° NNW 19:53:35 20° N 19:53:35 20° N
ATLAS 5 CENTAUR R/B 4.2 20:05:01 10° NW 20:06:48 16° NNW 20:06:48 16° NNW
ATLAS 3B R/B 4.0 20:09:55 10° NW 20:15:27 31° N 20:15:27 31° N
Cosmos 2278 Rocket 3.7 20:16:15 10° NW 20:20:25 33° W 20:20:25 33° W
NOSS 3-2 (C) 4.2 20:19:58 10° NW 20:25:53 64° NW 20:25:53 64° NW
CENTAUR R/B 3.3 20:20:03 10° NW 20:27:18 73° W 20:27:18 73° W
COSMOS 2428 4.3 20:23:50 10° WSW 20:27:38 31° WNW 20:27:38 31° WNW
Cosmos 2219 Rocket 4.1 20:36:42 10° W 20:40:45 25° NW 20:40:45 25° NW
Cosmos 1943 Rocket 4.5 20:54:10 10° NNW 20:55:48 20° NW 20:55:48 20° NW
